Regional Weather Roundup
Issued by NWS Charleston, SC

Current Version | Previous Version | Graphics & Text | Print | Product List | Glossary On
Versions: 1 2 3 4 5 6 7 8 9 10 11 12 13 14 15 16 17 18 19 20 21 22 23 24 25 26 27 28 29 30 31 32 33 34 35 36 37 38 39 40 41 42 43 44 45 46 47 48 49 50
023 ASUS42 KCHS 181912 RWRCHS REGIONAL WEATHER ROUNDUP NATIONAL WEATHER SERVICE CHARLESTON SC 300 PM EDT FRI AUG 18 2017 NOTE: "FAIR" INDICATES FEW OR NO CLOUDS BELOW 12,000 FEET WITH NO SIGNIFICANT WEATHER AND/OR OBSTRUCTIONS TO VISIBILITY. NOT ALL STATIONS ARE QUALITY CONTROLLED. USE DATA WITH CAUTION... ESPECIALLY DEWPOINT OBSERVATIONS. SCZ027-030-031-034>040-042>050-182000- ...SOUTHEAST SOUTH CAROLINA... CITY SKY/WX TMP DP RH WIND PRES REMARKS N CHARLESTON MOSUNNY 94 75 54 VRB5 29.92F HX 105 WATERFRONT PRK N/A 88 81 79 S12 29.78F HX 106 JOHNS ISLAND FAIR 93 79 62 S13 29.93F HX 110 PINOPOLIS N/A 91 75 59 SW6 29.85F HX 102 MONCKS CORNER FAIR 93 72 49 S7 29.92F HX 100 SUMMERVILLE FAIR 95 73 49 SW6 29.93F HX 105 BEAUFORT MCAS MOSUNNY 94 74 52 W8 29.94F HX 104 BEAUFORT ARPT FAIR 91 77 62 S8 29.93F HX 105 HILTON HEAD IS SUNNY 90 79 70 SE6 29.96F HX 105 WALTERBORO PTCLDY 95 70 43 W9 29.94F HX 101 ALLENDALE NOT AVBL ...SOUTHERN MIDLANDS AND PEE DEE... CITY SKY/WX TMP DP RH WIND PRES REMARKS GEORGETOWN FAIR 91 73 55 SW9 29.93F HX 100 KINGSTREE FAIR 91 72 52 S7 29.92F HX 98 ORANGEBURG MOSUNNY 95 71 45 SW10 29.93F HX 102 BARNWELL FAIR 97 73 46 SW8 29.93F HX 107 AIKEN FAIR 91 72 52 SW6 29.97F HX 98 MANNING MOCLDY 91 75 59 CALM 29.92F HX 102 COLUMBIA MOSUNNY 96 72 45 SW8 29.90F HX 104 SUMTER MOSUNNY 96 71 44 S10 29.89F HX 103 FLORENCE MOSUNNY 93 73 52 SW13 29.90F HX 102 MYRTLE BEACH MOSUNNY 90 79 70 S16 29.92F HX 105 N MYRTLE BEACH SUNNY 89 81 77 S16 29.91F HX 108 $$ GAZ063-065-086>088-099>101-113>116-118-119-134>141-150-182000- ...SOUTHEAST GEORGIA... CITY SKY/WX TMP DP RH WIND PRES REMARKS SAVANNAH ARPT PTSUNNY 96 72 45 W5 29.95F HX 104 HUNTER AAF MOSUNNY 96 74 49 W7 29.92F HX 107 FORT STEWART SUNNY 95 68 40 W10 29.93F HX 100 STATESBORO SUNNY 94 68 41 W6 29.95F HX 98 SYLVANIA PTCLDY 94 76 57 W3 29.95F HX 107 CLAXTON FAIR 96 72 45 CALM 29.95F HX 104 ...CSRA...CENTRAL AND FAR SOUTHEAST GEORGIA... CITY SKY/WX TMP DP RH WIND PRES REMARKS THOMSON PTSUNNY 91 73 54 NW8 29.99F HX 99 AUGUSTA-BUSH MOSUNNY 94 72 48 SW10 29.92F HX 102 AUGUSTA-DANIEL MOSUNNY 95 69 42 VRB6 29.94F HX 100 SWAINSBORO FAIR 95 72 46 NW5 29.96F HX 103 VIDALIA MOSUNNY 97 72 44 SW3 29.96F HX 105 EASTMAN FAIR 96 57 27 SW8 29.98F HX 94 HAZLEHURST FAIR 95 51 22 CALM 29.95F HX 92 ALMA SUNNY 96 68 39 W5 29.96F HX 101 WAYCROSS PTSUNNY 96 67 38 CALM 29.96F HX 99 JESUP NOT AVBL BAXLEY FAIR 93 70 46 N5 29.96F HX 99 BRUNSWICK HVY RAIN 82 73 74 SE14G20 29.98R VSB 1 SAINT SIMONS SUNNY 89 79 72 SE10 29.97S HX 104 $$ SCZ027-028-034-036>038-045-046-048>050-GAZ119-141-182000- ...LAKE AND SUPPLEMENTAL COASTAL OBSERVATIONS... STATION/POSITION TIME TEMP WIND PRES WAVE SWELL AIR SEA DIR/SP/G HT/PER HT/PER/DIR (UTC) (F) (DEG/KT/KT) (MB) (FT/S) (FT/S/D) WINYAH BAY 1745 92 240/ 7 1014.0 LAKE MURRAY 1820 90 240/ 9/ 13 1012.2 ACE BASIN NERRS 1745 93 230/ 2 1014.0 FORT PULASKI 1842 90 86 180/ 6/ 10 1014.7F SAPELO ISLAND 1800 94 190/ 3 1015.0 $$ ANZ835-935-AMZ111-154-330-350-352-354-370-450-454-472-182000- ...C-MAN AND BUOY OBSERVATIONS... STATION/POSITION TIME TEMP WIND PRES WAVE SWELL AIR SEA DIR/SP/G HT/PER HT/PER/DIR (UTC) (F) (DEG/KT/KT) (MB) (FT/S) (FT/S/D) BUOY 41004 1850 84 85 220/ 10/ 12 1013.8F 2/ 5 2/140/ 8 BUOY 41008 1850 85 87 170/ 8/ 10 1014.4F 1/ 7 2/100/ 7 FOLLY BEACH CMAN 1800 87 170/ 11/ 12 1015.1F CAPERS NEARSHORE 1808 84 87 200/ 12/ 16 1014.0F FRIPP NEARSHORE 1808 86 190/ 10/ 12 1014.1F STATION/POSITION TIME TEMP WIND PRES WAVE SWELL AIR SEA DIR/SP/G HT/PER HT/PER/DIR (UTC) (F) (DEG/KT/KT) (MB) (FT/S) (FT/S/D) 5E ST. MARYS GA 1830 87 N/A 1/ 7 FRYING PAN BUOY 1850 84 84 210/ 14/ 16 1013.2F 3/ 5 BUOY 41025 1850 85 86 200/ 16/ 19 1013.4F 2/ 5 2/ 50/ 8 CAPE LOOKOUT NC 1800 87 210/ 13/ 18 1013.2F BUOY 41002 1850 84 85 230/ 8/ 10 1016.1F 3/ 8 2/ 80/ 8 BUOY 41010 1850 85 85 180/ 6/ 8 1016.0F 2/ 8 2/110/ 8 ST AUGUSTINE FL 1900 83 84 130/ 10/ 11 1015.3F $$

USA.gov is the U.S. government's official web portal to all federal, state and local government web resources and services.